Regional Weather Roundup
Issued by NWS

Home | Current Version | Previous Version | Graphics & Text | Print | Product List | Glossary On
Versions: 1 2 3 4 5 6 7 8 9 10 11 12 13 14 15 16 17 18 19 20 21 22 23 24 25 26 27 28 29 30 31 32 33 34 35 36 37 38 39 40 41 42 43 44 45 46 47 48 49 50
000
ASUS43 KDMX 251308
RWRIA

WEATHER ROUNDUP FOR IOWA
NATIONAL WEATHER SERVICE DES MOINES IA
800 AM CDT MON JUL 25 2016

NOTE: "FAIR" INDICATES FEW OR NO CLOUDS BELOW 12,000 FEET WITH NO
SIGNIFICANT WEATHER AND/OR OBSTRUCTIONS TO VISIBILITY.

* - THESE STATIONS ARE NOT NWS STATIONS...THUS NOT UNDER NWS
QUALITY CONTROL.  THEY ALSO DO NOT REPORT WEATHER SUCH
AS PRECIPITATION OR FOG.

IAZ001>003-012>014-020>022-031>034-043>046-251400-
   NORTHWEST IOWA

CITY           SKY/WX    TMP DP  RH WIND       PRES   REMARKS
CARROLL *      SUNNY     70  66  88 CALM      30.12R
CHEROKEE *     MOSUNNY   64  64 100 CALM      30.13R
DENISON *        N/A     64  64 100 CALM      30.11
LE MARS *      SUNNY     64  63  94 CALM      30.14R
SHELDON *      SUNNY     63  63 100 CALM      30.12R FOG
SIOUX CITY     SUNNY     67  63  87 CALM      30.13R
SPENCER          N/A     65  62  90 SW3       30.13R
STORM LAKE *   SUNNY     70  63  78 CALM      30.13S
$$

IAZ055>058-069>071-079>083-090>094-251400-
   SOUTHWEST IOWA

CITY           SKY/WX    TMP DP  RH WIND       PRES   REMARKS
ATLANTIC *     SUNNY     66  64  94 N5        30.11S
CLARINDA *       N/A     70  66  88 MISG      30.12S
COUNCIL BLFS * SUNNY     70  64  83 NE5       30.11F
CRESTON *      MOSUNNY   70  64  83 NE7       30.12R
HARLAN  *      SUNNY     66  64  94 CALM      30.16R
LAMONI         CLOUDY    68  65  90 CALM      30.10R
RED OAK *      MOSUNNY   68  64  88 CALM      30.11S
SHENANDOAH *   CLOUDY    68  68 100 CALM      30.11R
$$

IAZ047>049-059>061-072>074-084-251400-
   CENTRAL IOWA

CITY           SKY/WX    TMP DP  RH WIND       PRES   REMARKS
AMES           SUNNY     71  67  87 NW3       30.10R
ANKENY *         N/A    N/A N/A N/A MISG        N/A
BOONE *        SUNNY     70  66  88 N7        30.10R
CHARITON *       N/A    N/A N/A N/A MISG        N/A
DES MOINES     PTSUNNY   74  65  73 N7        30.08S
GRINNELL*      SUNNY     69  65  87 NW5       30.09S
KNOXVILLE *    CLOUDY    72  64  78 CALM      30.07R
MARSHALLTOWN   SUNNY     68  66  93 NW7       30.08S
NEWTON *       SUNNY     72  68  88 N7        30.08R
PELLA *        CLOUDY    71  65  81 CALM      30.09
PERRY *          N/A     69  67  94 CALM      30.11R
$$

IAZ004>006-015-016-023>025-035-036-251400-
   NORTH CENTRAL IOWA

CITY           SKY/WX    TMP DP  RH WIND       PRES   REMARKS
ALGONA *       SUNNY     68  64  88 SW3       30.12R
ESTHERVILLE    SUNNY     67  65  93 CALM      30.12R
FORT DODGE *   SUNNY     68  64  88 CALM      30.12S
MASON CITY     SUNNY     70  65  84 W6        30.12R
FOREST CITY *    N/A     64  64 100 CALM      30.11R
IOWA FALLS *     N/A     69  65  89 NW5       30.11S
$$

IAZ007>011-017>019-026>030-037>042-050>054-066-251400-
   NORTHEAST IOWA

CITY           SKY/WX    TMP DP  RH WIND       PRES   REMARKS
CEDAR RAPIDS   SUNNY     69  68  96 CALM      30.06R
CHARLES CITY * SUNNY     68  68 100 W5        30.09S
CLINTON *      CLOUDY    71  69  93 NW7       30.04S
DECORAH *      SUNNY     68  64  88 NW3       30.06F
DUBUQUE        SUNNY     71  65  81 CALM      30.06R
MONTICELLO *   SUNNY     72  66  83 VRB5      30.05S
OELWEIN *      SUNNY     68  66  94 NW8       30.08F
WATERLOO       SUNNY     70  65  84 NW8       30.07S
$$

IAZ064-065-067-068-078-251400-
   EAST CENTRAL IOWA

CITY           SKY/WX    TMP DP  RH WIND       PRES   REMARKS
DAVENPORT      CLOUDY    71  67  87 NW7       30.05R
IOWA CITY      CLOUDY    73  66  78 NW5       30.07S
MT. PLEASANT *   N/A     73  71  93 N6        30.05F
MUSCATINE *    CLOUDY    73  68  83 NW6       30.05S
QUAD CITIES    CLOUDY    76  67  73 N3        30.03S
$$

IAZ062-063-075>077-085>089-095>099-251400-
   SOUTHEAST IOWA

CITY           SKY/WX    TMP DP  RH WIND       PRES   REMARKS
BURLINGTON     CLOUDY    73  69  87 N8        30.03S
FAIRFIELD *    CLOUDY    72  66  83 N5        30.06S
KEOKUK *       PTSUNNY   72  68  88 N7        30.02S
OSKALOOSA *      N/A     67  65  94 CALM      30.08F
CENTERVILLE *    N/A     70  66  88 CALM      30.10S
OTTUMWA        CLOUDY    69  65  86 NW3       30.07F
WASHINGTON *   CLOUDY    72  68  88 N6        30.07S
$$

ABBREVIATIONS USED IN REMARKS
   TC - TEMPERATURES IN CELSIUS
  WCI - WIND CHILL INDEX
   HX - HEAT INDEX
  VSB - VISIBILITY
$$




USA.gov is the U.S. government's official web portal to all federal, state and local government web resources and services.